This is the latest recevied weather packets stored in our database for station/object KO6LQJ. If no packets are shown the sender has not sent any weather packets the latest 10 day(s).
| Time | Temp. | Humidity | Pressure | Rain* | Wind** | Luminosity | Snow |
|---|---|---|---|---|---|---|---|
| 1777985407 | 11.11° C | 73% | 1015.3 hPa | 0 mm | - | 0 W/m² | - |
| 1777985103 | 10.56° C | 73% | 1015.2 hPa | 0 mm | - | 0 W/m² | - |
| 1777984799 | 10.56° C | 73% | 1015.4 hPa | 0 mm | - | 0 W/m² | - |
| 1777984496 | 10.56° C | 73% | 1015.2 hPa | 0 mm | - | 0 W/m² | - |
| 1777984192 | 10.56° C | 73% | 1015.3 hPa | 0 mm | - | 0 W/m² | - |
| 1777983889 | 11.11° C | 73% | 1015.3 hPa | 0 mm | - | 0 W/m² | - |
| 1777983586 | 11.11° C | 72% | 1015.1 hPa | 0 mm | - | 0 W/m² | - |
| 1777983283 | 11.11° C | 71% | 1014.9 hPa | 0 mm | - | 0 W/m² | - |
| 1777982979 | 11.67° C | 71% | 1015.2 hPa | 0 mm | - | 0 W/m² | - |
| 1777982676 | 11.67° C | 70% | 1015.2 hPa | 0 mm | - | 0 W/m² | - |
| 1777982375 | 11.67° C | 70% | 1015.3 hPa | 0 mm | - | 0 W/m² | - |
| 1777982071 | 12.22° C | 69% | 1015.3 hPa | 0 mm | - | 0 W/m² | - |
| 1777981769 | 12.22° C | 70% | 1015.2 hPa | 0 mm | - | 0 W/m² | - |
| 1777981465 | 12.22° C | 70% | 1015.2 hPa | 0 mm | - | 0 W/m² | - |
| 1777981161 | 12.22° C | 70% | 1015.1 hPa | 0 mm | - | 0 W/m² | - |
| 1777980859 | 12.78° C | 70% | 1015.2 hPa | 0 mm | - | 0 W/m² | - |
| 1777980554 | 12.78° C | 69% | 1014.9 hPa | 0 mm | - | 0 W/m² | - |
| 1777980252 | 12.78° C | 68% | 1015.1 hPa | 0 mm | - | 0 W/m² | - |
| 1777979948 | 12.78° C | 68% | 1015.4 hPa | 0 mm | - | 0 W/m² | - |
| 1777979643 | 12.78° C | 67% | 1015.2 hPa | 0 mm | - | 0 W/m² | - |
| 1777979339 | 13.33° C | 67% | 1015.2 hPa | 0 mm | - | 0 W/m² | - |
| 1777979037 | 13.33° C | 67% | 1014.9 hPa | 0 mm | - | 0 W/m² | - |
| 1777978733 | 13.33° C | 67% | 1015.2 hPa | 0 mm | - | 0 W/m² | - |
| 1777978429 | 13.33° C | 67% | 1015.3 hPa | 0 mm | - | 0 W/m² | - |
| 1777978126 | 13.33° C | 67% | 1015.5 hPa | 0 mm | - | 0 W/m² | - |
* Rain latest hour (hover to see other rain measurements)
** Current wind speed in m/s (hover to see current wind gust speed)